Location: Riedlingen
(48.1569°N, 9.4757°E)
Time: 03:35:35
(UTC+02:00)

ISS - Pass Details

Date: 17 May 2021
Orbit: 417 x 422 km, 51.6° (Epoch: 15 June)

Event Time Altitude Azimuth Distance (km) Brightness Sun altitude
Rises 03:40:44 0° 290° (WNW) 2,374 -0.1 -15.4°
Reaches altitude 10° 03:42:56 10° 282° (WNW) 1,508 -1.2 -15.2°
Maximum altitude 03:46:03 35° 215° (SW) 707 -3.2 -14.9°
Drops below altitude 10° 03:49:09 10° 148° (SSE) 1,502 -1.2 -14.6°
Sets 03:51:21 0° 139° (SE) 2,363 -0.1 -14.3°
